[[{"header":{"parameterUnit":"m.s-1","parameterCategory":1,"la1":30.2991,"la2":30.254,"lo1":-89.0895,"lo2":-89.0444,"dy":0.0017,"dx":0.0017,"nx":28,"ny":28,"refTime":"2024-04-07T09:00:00:Z","depth":0,"parameterNumber":2,"parameterNumberName":"U-component_of_WINDS"},"data":[0,0,0,0,0,0,0,0,0,0,0,0,0,0,0,0,0,0,0,0,0,0,0,0,0,0,0,0,0,0,0,0,0,0,0,0,0,0,0,0,0,0,0,0,0,0,0,0,0,0,0,0,0,0,0,0,0,0,-4.5767,-4.5768,0,-4.587,-4.5871,-4.5872,-4.588,-4.5879,-4.5878,-4.5876,-4.598,-4.5983,-4.5987,0,0,0,0,0,0,0,0,0,0,0,0,0,-4.5576,-4.558,-4.5767,-4.5768,-4.5769,-4.587,-4.5871,-4.5872,-4.588,-4.5879,-4.5877,-4.5876,-4.5978,-4.5983,-4.5988,0,0,0,0,0,0,0,0,0,0,0,0,0,-4.5667,-4.5581,-4.5767,-4.5785,-4.5788,-4.5869,-4.5871,-4.5873,-4.588,-4.5879,-4.5877,-4.5875,-4.5977,-4.5983,-4.5988,-4.6057,0,0,-4.6006,-4.6008,0,0,0,0,0,0,0,0,-4.5662,-4.5674,-4.5781,-4.5784,-4.5787,-4.586,-4.5842,-4.5934,-4.5881,-4.5845,-4.5876,-4.5874,-4.5941,-4.595,-4.5973,-4.6062,-4.6066,-4.6006,-4.6009,-4.6012,-4.6014,0,0,0,0,0,0,0,-4.5655,-4.5669,-4.5807,-4.5783,-4.5787,-4.5788,-4.5799,-4.5859,-4.5901,-4.5848,-4.5849,-4.5861,-4.5943,-4.5967,-4.5975,-4.6068,-4.6006,-4.6011,-4.6014,-4.6017,-4.622,-4.6221,0,0,0,0,0,0,-4.5646,-4.5664,-4.5804,-4.5811,-4.5719,-4.5793,-4.5805,-4.5838,-4.5901,-4.5909,-4.5862,-4.5861,-4.5958,-4.5968,-4.5979,-4.6063,-4.6012,-4.6017,-4.6021,-4.6218,-4.622,-4.6222,0,0,0,0,0,0,-4.5642,-4.5658,-4.58,-4.5738,-4.5756,-4.5798,-4.5835,-4.5841,-4.5866,-4.5912,-4.5919,-4.588,-4.5957,-4.5971,-4.6038,-4.6067,-4.602,-4.6025,-4.6215,-4.6218,-4.6221,-4.6232,0,0,0,0,0,0,-4.5636,-4.5657,-4.5683,-4.5738,-4.5759,-4.5857,-4.5837,-4.5845,-4.5876,-4.5875,-4.593,-4.5937,-4.5957,-4.6029,-4.6043,-4.6074,-4.6029,-4.6213,-4.6217,-4.622,-4.623,-4.6235,-4.624,0,0,0,0,0,-4.5629,-4.5682,-4.5684,-4.5701,-4.5793,-4.5859,-4.5871,-4.5893,-4.5878,-4.5905,-4.5935,-4.5936,-4.6062,-4.6036,-4.6052,-4.6085,-4.6211,-4.6216,-4.622,-4.6227,-4.6234,-4.624,0,0,0,0,0,0,-4.5627,-4.5689,-4.5693,-4.5765,-4.5807,-4.586,-4.5894,-4.59,-4.5946,-4.5943,-4.5969,-4.5981,-4.6047,-4.6073,-4.6043,-4.6155,-4.6135,-4.6143,-4.6135,-4.6142,-4.6147,-4.6138,-4.6034,0,0,0,0,0,-4.5636,-4.5684,-4.5736,-4.5794,-4.5815,-4.5851,-4.5881,-4.5895,-4.5939,-4.5956,-4.5991,-4.6033,-4.6083,-4.6114,-4.6162,-4.6235,-4.6246,-4.6265,-4.6271,-4.6275,-4.628,-4.632,-4.6329,-4.6237,-4.6237,-4.6237,0,0,-4.5652,-4.5692,-4.5721,-4.5795,-4.5829,-4.5878,-4.5866,-4.5919,-4.5955,-4.5964,-4.6029,-4.6057,-4.6106,-4.6176,-4.6208,-4.6199,-4.6309,-4.628,-4.6283,-4.6287,-4.6326,-4.6334,-4.6342,-4.624,-4.6239,-4.6239,0,0,-4.5707,-4.5743,-4.5796,-4.5831,-4.5883,-4.5908,-4.592,-4.5974,-4.5992,-4.6059,-4.6067,-4.6111,-4.6196,-4.623,-4.6259,-4.6331,-4.6333,-4.6346,-4.6373,-4.6412,-4.6419,-4.6426,-4.645,-4.6458,-4.6352,-4.6352,-4.6352,0,-4.5721,-4.5796,-4.5822,-4.5875,-4.5906,-4.5919,-4.5972,-4.6005,-4.607,-4.6092,-4.6082,-4.6189,-4.6223,-4.6301,-4.6319,-4.6342,-4.6357,-4.6338,-4.6416,-4.6423,-4.6429,-4.6453,-4.6462,-4.6353,-4.6353,-4.6353,-4.6353,0,-4.581,-4.5862,-4.5898,-4.5962,-4.5998,-4.6051,-4.6085,-4.6119,-4.6131,-4.6156,-4.6224,-4.6266,-4.6322,-4.6343,-4.6354,-4.6423,-4.6416,-4.6411,-4.6391,-4.6439,-4.6461,-4.647,-4.6355,-4.6355,-4.6354,-4.6354,0,0,-4.5863,-4.5942,-4.5955,-4.5984,-4.6044,-4.6085,-4.6139,-4.6196,-4.6224,-4.627,-4.6315,-4.6388,-4.6384,-4.6417,-4.6433,-4.6467,-4.652,-4.6458,-4.646,-4.6466,-4.6598,-4.6599,-4.6609,-4.6524,-4.6526,-4.6527,-4.6593,0,-4.5923,-4.6019,-4.6045,-4.6126,-4.6175,-4.6189,-4.6236,-4.6278,-4.6304,-4.6349,-4.6378,-4.6428,-4.642,-4.644,-4.6475,-4.6506,-4.6546,-4.6502,-4.6564,-4.6566,-4.6549,-4.6621,-4.6622,-4.6682,-4.6602,-4.6604,-4.6605,0,-4.6005,-4.6054,-4.614,-4.6195,-4.6216,-4.6258,-4.6312,-4.6356,-4.6404,-4.6421,-4.6459,-4.6472,-4.6529,-4.6509,-4.6587,-4.6556,-4.6584,-4.6604,-4.6607,-4.6611,-4.6586,-4.6625,-4.6702,-4.671,-4.6619,-4.6618,-4.6617,0,-4.6033,-4.612,-4.6183,-4.6208,-4.6274,-4.6303,-4.6332,-4.6379,-4.6412,-4.646,-4.6482,-4.6536,-4.6565,-4.6606,-4.6634,-4.6617,-4.671,-4.6692,-4.6724,-4.6723,-4.674,-4.6738,-4.682,-4.6763,-4.6762,-4.6762,-4.6762,0,-4.6096,-4.6148,-4.6196,-4.6234,-4.6293,-4.6324,-4.6381,-4.641,-4.6453,-4.6497,-4.6514,-4.6555,-4.659,-4.6636,-4.6659,-4.672,-4.6734,-4.6748,-4.6753,-4.6745,-4.6743,-4.6761,-4.6756,-4.6765,-4.6764,-4.6764,-4.6763,0,-4.6135,-4.617,-4.6239,-4.6298,-4.6314,-4.6354,-4.6404,-4.6441,-4.647,-4.6526,-4.654,-4.6584,-4.664,-4.6673,-4.6742,-4.6758,-4.6825,-4.6829,-4.6808,-4.6809,-4.6839,-4.6835,-4.6934,-4.6948,-4.6883,-4.6883,-4.6884,0,-4.6171,-4.6212,-4.6275,-4.6306,-4.6336,-4.6386,-4.642,-4.6452,-4.6487,-4.6547,-4.6577,-4.6634,-4.6681,-4.6769,-4.6806,-4.686,-4.6865,-4.6896,-4.6872,-4.6863,-4.6863,-4.6859,-4.6863,-4.6898,-4.6899,-4.6899,-4.69,0,-4.6232,-4.6248,-4.6296,-4.6352,-4.6392,-4.6437,-4.6482,-4.6507,-4.6547,-4.6585,-4.6642,-4.6679,-4.6751,-4.6807,-4.6864,-4.6894,-4.6903,-4.6908,-4.6917,-4.6908,-4.6894,-4.69,-4.6816,-4.6904,-4.6904,-4.6903,-4.6903,-4.6903,-4.6269,-4.6306,-4.6356,-4.641,-4.6448,-4.649,-4.6528,-4.6562,-4.6611,-4.6672,-4.6689,-4.6749,-4.6798,-4.6876,-4.6908,-4.6955,-4.695,-4.6965,-4.6968,-4.6971,-4.697,-4.6889,-4.6966,-4.6966,-4.6966,-4.6966,-4.6966,0,-4.6329,-4.6363,-4.6412,-4.6475,-4.6518,-4.6525,-4.6576,-4.661,-4.6663,-4.6709,-4.6755,-4.6821,-4.6876,-4.692,-4.6976,-4.7006,-4.7011,-4.7019,-4.7016,-4.7022,-4.6973,-4.6957,-4.7014,-4.7014,-4.7014,-4.7014,-4.7014,-4.7013,-4.6364,-4.6427,-4.6449,-4.653,-4.6564,-4.6623,-4.6651,-4.669,-4.6726,-4.68,-4.6846,-4.6874,-4.6919,-4.698,-4.703,-4.7042,-4.7061,-4.7068,-4.7079,-4.7031,-4.7026,-4.7021,-4.7006,-4.7072,-4.7072,-4.7125,-4.7125,-4.7126]},{"header":{"parameterUnit":"m.s-1","parameterCategory":1,"la1":30.2991,"la2":30.254,"lo1":-89.0895,"lo2":-89.0444,"dy":0.0017,"dx":0.0017,"nx":28,"ny":28,"refTime":"2024-04-07T09:00:00:Z","depth":0,"parameterNumber":3,"parameterNumberName":"V-component_of_WINDS"},"data":[0,0,0,0,0,0,0,0,0,0,0,0,0,0,0,0,0,0,0,0,0,0,0,0,0,0,0,0,0,0,0,0,0,0,0,0,0,0,0,0,0,0,0,0,0,0,0,0,0,0,0,0,0,0,0,0,0,0,4.6762,4.6762,0,4.6793,4.6794,4.6794,4.6787,4.6787,4.6786,4.6785,4.6815,4.6816,4.6818,0,0,0,0,0,0,0,0,0,0,0,0,0,4.6694,4.6695,4.6762,4.6762,4.6762,4.6793,4.6794,4.6794,4.6787,4.6787,4.6786,4.6785,4.6815,4.6816,4.6818,0,0,0,0,0,0,0,0,0,0,0,0,0,4.6724,4.6696,4.6761,4.6763,4.6763,4.6793,4.6794,4.6794,4.6787,4.6786,4.6786,4.6785,4.6814,4.6816,4.6818,4.6848,0,0,4.6824,4.6825,0,0,0,0,0,0,0,0,4.6722,4.6727,4.6762,4.6763,4.6763,4.6785,4.6781,4.6812,4.6788,4.6778,4.6785,4.6784,4.6806,4.6808,4.6816,4.6849,4.6851,4.6824,4.6826,4.6826,4.6827,0,0,0,0,0,0,0,4.672,4.6725,4.6774,4.6763,4.6763,4.6761,4.6765,4.6787,4.6796,4.6779,4.6778,4.6782,4.6806,4.6814,4.6817,4.6851,4.6824,4.6826,4.6827,4.6828,4.6913,4.6914,0,0,0,0,0,0,4.6718,4.6724,4.6773,4.6775,4.674,4.6763,4.6767,4.6779,4.6796,4.6798,4.6783,4.6782,4.6811,4.6814,4.6818,4.6856,4.6826,4.6828,4.6829,4.6912,4.6913,4.6915,0,0,0,0,0,0,4.6717,4.6723,4.6772,4.6749,4.6755,4.6765,4.6779,4.678,4.6789,4.6799,4.6801,4.679,4.6811,4.6815,4.6841,4.6857,4.6829,4.6831,4.6911,4.6913,4.6914,4.6931,0,0,0,0,0,0,4.6715,4.6722,4.6734,4.675,4.6757,4.6795,4.678,4.6781,4.6792,4.6791,4.6806,4.6808,4.681,4.6838,4.6843,4.6859,4.6833,4.691,4.6912,4.6913,4.6929,4.6933,4.6936,0,0,0,0,0,4.6712,4.6736,4.6734,4.674,4.6771,4.6796,4.68,4.6803,4.6794,4.6806,4.6813,4.6807,4.6854,4.6841,4.6847,4.6863,4.6909,4.6911,4.6913,4.6928,4.6932,4.6936,0,0,0,0,0,0,4.672,4.6738,4.6736,4.6766,4.678,4.6795,4.6809,4.6807,4.6823,4.6821,4.6824,4.6827,4.6855,4.6861,4.6846,4.6894,4.688,4.6884,4.6889,4.6894,4.6897,4.6895,4.6834,0,0,0,0,0,4.6725,4.6744,4.6759,4.6783,4.6791,4.6799,4.681,4.6811,4.6825,4.6831,4.684,4.6853,4.6871,4.6882,4.6899,4.693,4.6934,4.6944,4.6948,4.6951,4.6954,4.6973,4.6978,4.6922,4.6922,4.6922,0,0,4.6735,4.6748,4.6759,4.6785,4.6796,4.6816,4.6804,4.6824,4.6839,4.6833,4.686,4.6867,4.6882,4.6912,4.6925,4.6918,4.6971,4.6954,4.6956,4.6958,4.6976,4.6981,4.6986,4.6924,4.6924,4.6923,0,0,4.6765,4.6776,4.6799,4.6811,4.6829,4.6835,4.684,4.6856,4.6862,4.6888,4.6885,4.6902,4.6933,4.6944,4.6954,4.6992,4.6988,4.6997,4.7016,4.7034,4.7039,4.7043,4.7057,4.7063,4.7,4.7,4.7,0,4.6776,4.6806,4.6811,4.6833,4.6845,4.6843,4.6867,4.6877,4.6899,4.6907,4.6899,4.694,4.6949,4.6982,4.6992,4.6999,4.7006,4.6995,4.7038,4.7042,4.7045,4.706,4.7065,4.7001,4.7001,4.7001,4.7001,0,4.682,4.6841,4.6857,4.6881,4.6895,4.6917,4.6925,4.6939,4.694,4.6947,4.6975,4.6987,4.7007,4.7015,4.7015,4.7049,4.7044,4.7037,4.7023,4.7052,4.7065,4.7071,4.7003,4.7002,4.7002,4.7002,0,0,4.6854,4.6881,4.6887,4.6899,4.6919,4.6936,4.6959,4.6981,4.6993,4.7008,4.7028,4.7055,4.705,4.7061,4.7062,4.7079,4.711,4.707,4.707,4.7078,4.715,4.7156,4.7162,4.7107,4.7108,4.7109,4.7149,0,4.6887,4.6929,4.6935,4.6972,4.6993,4.6992,4.7013,4.7027,4.7035,4.7053,4.7061,4.7081,4.7071,4.7078,4.7094,4.7103,4.7125,4.71,4.7127,4.7127,4.7124,4.7169,4.7175,4.7212,4.7154,4.7155,4.7156,0,4.693,4.695,4.699,4.701,4.7019,4.7037,4.7059,4.7076,4.7093,4.7098,4.7112,4.7112,4.7137,4.7121,4.7156,4.7139,4.715,4.7156,4.7158,4.7161,4.7144,4.7175,4.7224,4.723,4.7164,4.7163,4.7163,0,4.6953,4.6989,4.7018,4.7028,4.7052,4.7065,4.7075,4.7092,4.7105,4.7124,4.7133,4.7153,4.7165,4.7181,4.7187,4.7175,4.7221,4.7206,4.7226,4.7226,4.7236,4.7236,4.7289,4.7242,4.7242,4.7242,4.7242,0,4.699,4.7015,4.703,4.7048,4.7076,4.7083,4.711,4.712,4.7135,4.7155,4.7155,4.7174,4.718,4.72,4.7204,4.7233,4.7238,4.7242,4.7244,4.7243,4.7243,4.7251,4.7249,4.7243,4.7243,4.7243,4.7242,0,4.7021,4.7031,4.7064,4.7084,4.709,4.7111,4.7128,4.7146,4.7154,4.718,4.7186,4.7198,4.7222,4.723,4.7257,4.7261,4.7295,4.7293,4.7289,4.729,4.731,4.7309,4.7372,4.7381,4.7326,4.7327,4.7327,0,4.7044,4.7064,4.7088,4.7102,4.7114,4.7136,4.7151,4.7158,4.7173,4.7196,4.7211,4.7235,4.7255,4.7292,4.7304,4.7325,4.7325,4.7346,4.7328,4.7328,4.7327,4.7326,4.7329,4.7349,4.735,4.735,4.735,0,4.7085,4.709,4.7112,4.7136,4.7154,4.7173,4.7191,4.7203,4.7213,4.723,4.7256,4.7271,4.7301,4.7325,4.7348,4.7358,4.7356,4.7356,4.7362,4.7362,4.736,4.7364,4.73,4.7354,4.7354,4.7354,4.7354,4.7353,4.7114,4.7132,4.7153,4.7178,4.7193,4.7211,4.7229,4.7241,4.7263,4.7289,4.7292,4.7319,4.7338,4.7368,4.738,4.7401,4.7395,4.7404,4.7406,4.7408,4.7411,4.7356,4.7405,4.7405,4.7405,4.7405,4.7405,0,4.7156,4.717,4.7193,4.722,4.724,4.7238,4.7259,4.7276,4.7301,4.7319,4.7339,4.7369,4.7393,4.7407,4.7431,4.7445,4.7445,4.7451,4.7451,4.7454,4.7414,4.7407,4.7451,4.7451,4.7451,4.7451,4.7451,4.7451,4.7181,4.7213,4.7221,4.7261,4.7274,4.7303,4.7315,4.7332,4.7346,4.7381,4.7401,4.7411,4.7427,4.7453,4.7475,4.7479,4.7488,4.7495,4.7498,4.7461,4.7456,4.7452,4.7445,4.7497,4.7497,4.7536,4.7537,4.7537]}]]